FW8707 Weather Reports


time (UTC)temp
C
wind
direction
speed
KPH
gust
KPH
rain 1hr
cm
rain 24hr
cm
rain mn
cm
humidity
%
barometer
mb
20260505005008 11 279 4.8 14.5 0.05 0.10 0.10 78 1010.6
20260505004536 11 287 6.4 16.1 0.05 0.10 0.10 77 1010.6
20260505004010 11 279 6.4 16.1 0.05 0.10 0.10 75 1010.6
20260505003504 11 287 6.4 17.7 0.03 0.08 0.08 74 1010.7
20260505003011 12 270 6.4 17.7 0.03 0.08 0.08 71 1010.6
20260505002505 12 270 6.4 17.7 0.08 0.08 0.08 69 1010.5
20260505002008 12 270 1.6 9.7 0.08 0.08 0.08 70 1010.4
20260505001515 12 270 0.0 6.4 0.08 0.08 0.08 71 1010.3
20260505001007 12 270 0.0 9.7 0.05 0.05 0.05 71 1010.2
20260505000511 12 270 1.6 9.7 0.05 0.05 0.05 70 1010.3
20260505000023 13 270 1.6 6.4 0.05 0.05 0.05 70 1010.3
20260504235507 13 270 0.0 1.6 0.05 0.05 0.05 67 1010.1
20260504235008 13 270 0.0 1.6 0.05 0.05 0.05 64 1010.0
20260504234506 13 270 0.0 3.2 0.05 0.05 0.05 62 1010.0
20260504234003 13 270 0.0 4.8 0.05 0.05 0.05 65 1010.0
20260504233504 13 270 0.0 8.0 0.05 0.05 0.05 61 1010.0
20260504233009 14 270 0.0 12.9 0.05 0.05 0.05 59 1010.1
20260504232507 15 270 0.0 29.0 0.00 0.00 0.00 52 1010.2
20260504232005 15 270 8.0 29.0 0.00 0.00 0.00 49 1010.0
20260504231511 16 270 3.2 17.7 0.00 0.00 0.00 47 1010.0
20260504231011 16 270 0.0 14.5 0.00 0.00 0.00 43 1009.7
20260504230507 16 270 3.2 14.5 0.00 0.00 0.00 43 1009.4
20260504230018 16 270 4.8 12.9 0.00 0.00 0.00 42 1009.2
20260504225508 16 270 3.2 16.1 0.00 0.00 0.00 41 1009.0
20260504225010 17 270 4.8 16.1 0.00 0.00 0.00 41 1009.0
20260504224529 17 279 6.4 16.1 0.00 0.00 0.00 40 1008.8
20260504224011 17 279 3.2 17.7 0.00 0.00 0.00 38 1008.7
20260504223009 18 279 9.7 24.1 0.00 0.00 0.00 37 1008.7
20260504222504 18 280 8.0 24.1 0.00 0.00 0.00 36 1008.7
20260504222007 19 296 6.4 17.7 0.00 0.00 0.00 35 1008.7
20260504221513 19 96 4.8 17.7 0.00 0.00 0.00 36 1008.7
20260504221005 19 43 4.8 17.7 0.00 0.00 0.00 36 1008.7
20260504220505 18 352 3.2 17.7 0.00 0.00 0.00 37 1008.8
20260504220014 18 318 4.8 12.9 0.00 0.00 0.00 38 1008.9
20260504215509 18 296 3.2 9.7 0.00 0.00 0.00 38 1009.0
20260504215010 18 13 0.0 6.4 0.00 0.00 0.00 40 1009.0
20260504214520 17 11 1.6 6.4 0.00 0.00 0.00 39 1009.2
20260504214009 17 281 0.0 6.4 0.00 0.00 0.00 40 1009.2
20260504213509 17 286 3.2 6.4 0.00 0.00 0.00 40 1009.1
20260504213035 17 285 0.0 4.8 0.00 0.00 0.00 40 1009.0
20260504212510 17 287 0.0 4.8 0.00 0.00 0.00 40 1009.2
20260504212005 17 283 0.0 8.0 0.00 0.00 0.00 42 1009.1
20260504211507 17 283 1.6 11.3 0.00 0.00 0.00 41 1009.2
20260504211004 17 283 1.6 12.9 0.00 0.00 0.00 41 1009.1
20260504210506 17 280 3.2 16.1 0.00 0.00 0.00 40 1009.2
20260504210015 17 279 6.4 20.9 0.00 0.00 0.00 39 1009.3
20260504205507 17 320 6.4 27.4 0.00 0.00 0.00 38 1009.1
20260504205007 18 27 12.9 40.2 0.00 0.00 0.00 37 1009.1
20260504204517 17 13 11.3 40.2 0.00 0.00 0.00 37 1009.3
20260504204008 18 333 12.9 22.5 0.00 0.00 0.00 36 1009.2
20260504203513 18 259 11.3 20.9 0.00 0.00 0.00 36 1009.2
20260504203022 18 68 6.4 24.1 0.00 0.00 0.00 35 1008.8
20260504202509 17 25 3.2 24.1 0.00 0.00 0.00 37 1008.7
20260504202010 17 287 9.7 25.7 0.00 0.00 0.00 36 1008.6
20260504201527 17 284 6.4 29.0 0.00 0.00 0.00 37 1008.7
20260504201009 17 283 12.9 32.2 0.00 0.00 0.00 36 1008.9
20260504200503 17 281 12.9 32.2 0.00 0.00 0.00 36 1008.7
20260504200010 17 279 8.0 25.7 0.00 0.00 0.00 35 1008.8
20260504195506 17 279 9.7 29.0 0.00 0.00 0.00 34 1008.8
20260504195007 17 283 12.9 29.0 0.00 0.00 0.00 32 1008.7
20260504194520 18 256 9.7 27.4 0.00 0.00 0.00 29 1008.6
20260504194009 19 71 3.2 24.1 0.00 0.00 0.00 25 1008.9
20260504193020 19 300 1.6 48.3 0.00 0.00 0.00 25 1008.1
20260504192508 20 289 11.3 48.3 0.00 0.00 0.00 26 1008.5
20260504192009 20 254 0.0 22.5 0.00 0.00 0.00 25 1008.2
20260504191527 20 125 6.4 22.5 0.00 0.00 0.00 26 1007.9
20260504191009 20 270 9.7 29.0 0.00 0.00 0.00 28 1008.2
20260504190510 20 270 9.7 29.0 0.00 0.00 0.00 27 1007.9
20260504190028 20 322 8.0 24.1 0.00 0.00 0.00 26 1008.0
20260504185509 20 279 12.9 25.7 0.00 0.00 0.00 26 1008.1
20260504185007 20 275 14.5 25.7 0.00 0.00 0.00 26 1008.0
20260504184529 20 275 9.7 25.7 0.00 0.00 0.00 27 1008.1
20260504184010 21 292 9.7 22.5 0.00 0.00 0.00 27 1008.0
20260504183508 21 162 11.3 22.5 0.00 0.00 0.00 25 1008.1
20260504183019 21 292 6.4 19.3 0.00 0.00 0.00 27 1008.1
20260504182512 21 283 11.3 19.3 0.00 0.00 0.00 27 1008.1
20260504182010 21 282 6.4 14.5 0.00 0.00 0.00 26 1008.0
20260504181523 21 296 6.4 16.1 0.00 0.00 0.00 27 1008.1
20260504181010 21 296 3.2 16.1 0.00 0.00 0.00 26 1008.1
20260504180512 21 270 4.8 16.1 0.00 0.00 0.00 27 1008.2
20260504180032 21 99 3.2 9.7 0.00 0.00 0.00 26 1008.1
20260504175511 21 285 1.6 11.3 0.00 0.00 0.00 25 1008.2
20260504175010 21 281 3.2 11.3 0.00 0.00 0.00 26 1008.3
20260504174526 21 293 1.6 9.7 0.00 0.00 0.00 25 1008.3
20260504174007 21 291 3.2 11.3 0.00 0.00 0.00 26 1008.4
20260504173506 21 280 1.6 11.3 0.00 0.00 0.00 26 1008.5
20260504173017 21 279 3.2 11.3 0.00 0.00 0.00 26 1008.5
20260504172507 21 287 0.0 9.7 0.00 0.00 0.00 27 1008.5
20260504172008 20 279 1.6 14.5 0.00 0.00 0.00 26 1008.5
20260504171519 21 282 1.6 14.5 0.00 0.00 0.00 26 1008.5
20260504171011 20 301 3.2 12.9 0.00 0.00 0.00 26 1008.5
20260504170507 20 293 1.6 12.9 0.00 0.00 0.00 26 1008.5
20260504151008 16 149 0.0 3.2 0.00 0.00 0.00 35 1008.8
20260504150511 16 181 0.0 4.8 0.00 0.00 0.00 37 1008.8
20260504141013 11 270 0.0 4.8 0.00 0.00 0.00 43 1009.1
20260504140509 10 270 0.0 4.8 0.00 0.00 0.00 44 1009.1
20260504130510 8 275 0.0 8.0 0.00 0.00 0.00 46 1009.3
20260504110508 8 279 3.2 8.0 0.00 0.00 0.00 46 1009.5
20260504100510 8 275 1.6 11.3 0.00 0.00 0.00 46 1009.8
20260504082007 9 275 1.6 11.3 0.00 0.00 0.00 44 1010.5
20260504081517 9 275 3.2 11.3 0.00 0.00 0.00 45 1010.6
20260504081010 9 275 1.6 8.0 0.00 0.00 0.00 44 1010.7
20260504080508 9 275 1.6 6.4 0.00 0.00 0.00 44 1010.7
20260504050510 14 270 0.0 3.2 0.00 0.00 0.00 33 1011.7
20260504045507 15 270 0.0 0.0 0.00 0.00 0.00 31 1011.7
20260504045010 15 270 0.0 3.2 0.00 0.00 0.00 30 1011.7
20260504044534 15 270 0.0 3.2 0.00 0.00 0.00 30 1011.6
20260504044014 15 270 0.0 3.2 0.00 0.00 0.00 29 1011.7
20260504043513 15 270 0.0 3.2 0.00 0.00 0.00 28 1011.7
20260504043022 16 270 0.0 3.2 0.00 0.00 0.00 28 1011.8
20260504042510 16 270 0.0 4.8 0.00 0.00 0.00 28 1011.7
20260504042009 16 270 0.0 6.4 0.00 0.00 0.00 28 1011.7
20260504041526 16 270 0.0 14.5 0.00 0.00 0.00 28 1011.7
20260504041011 16 270 3.2 14.5 0.00 0.00 0.00 28 1011.7
20260504040510 16 270 3.2 12.9 0.00 0.00 0.00 29 1011.7
20260504040027 16 270 1.6 12.9 0.00 0.00 0.00 28 1011.6
20260504035510 15 270 0.0 8.0 0.00 0.00 0.00 28 1011.6
20260504035010 15 270 0.0 4.8 0.00 0.00 0.00 28 1011.5
20260504034529 16 270 0.0 3.2 0.00 0.00 0.00 29 1011.5
20260504034007 16 279 0.0 6.4 0.00 0.00 0.00 28 1011.3
20260504033507 16 279 0.0 6.4 0.00 0.00 0.00 28 1011.3
20260504033021 16 270 1.6 6.4 0.00 0.00 0.00 29 1011.3
20260504032506 16 294 1.6 11.3 0.00 0.00 0.00 29 1011.1
20260504032009 16 270 3.2 11.3 0.00 0.00 0.00 28 1011.0
20260504031524 16 293 3.2 8.0 0.00 0.00 0.00 28 1011.0
20260504031010 16 270 4.8 8.0 0.00 0.00 0.00 28 1010.9
20260504030503 16 270 0.0 6.4 0.00 0.00 0.00 28 1010.9
20260504030010 16 270 0.0 4.8 0.00 0.00 0.00 28 1010.9
20260504025504 17 270 0.0 3.2 0.00 0.00 0.00 28 1010.9
20260504025007 17 270 0.0 0.0 0.00 0.00 0.00 29 1010.8
20260504024514 17 171 0.0 0.0 0.00 0.00 0.00 29 1010.8
20260504024006 17 270 0.0 0.0 0.00 0.00 0.00 30 1010.8
20260504023506 17 270 0.0 0.0 0.00 0.00 0.00 27 1010.8
20260504023019 18 270 0.0 0.0 0.00 0.00 0.00 28 1010.7
20260504022506 18 270 0.0 0.0 0.00 0.00 0.00 29 1010.7
20260504022008 18 270 0.0 1.6 0.00 0.00 0.00 28 1010.7
20260504021525 19 270 0.0 1.6 0.00 0.00 0.00 26 1010.6
20260504021007 19 287 0.0 1.6 0.00 0.00 0.00 26 1010.6
20260504020508 20 207 0.0 4.8 0.00 0.00 0.00 25 1010.5
20260504020028 20 302 0.0 4.8 0.00 0.00 0.00 25 1010.5
20260504015510 20 290 0.0 4.8 0.00 0.00 0.00 25 1010.5
20260504015006 20 279 0.0 6.4 0.00 0.00 0.00 26 1010.4
20260504014508 20 204 0.0 6.4 0.00 0.00 0.00 25 1010.3
20260504014008 20 290 1.6 6.4 0.00 0.00 0.00 25 1010.3
20260504013507 20 138 0.0 8.0 0.00 0.00 0.00 25 1010.4
20260504013026 20 289 3.2 8.0 0.00 0.00 0.00 25 1010.3
20260504012507 20 73 0.0 4.8 0.00 0.00 0.00 25 1010.3
20260504012011 20 119 1.6 4.8 0.00 0.00 0.00 25 1010.4
20260504011518 21 87 0.0 4.8 0.00 0.00 0.00 25 1010.4
20260504011012 21 23 0.0 6.4 0.00 0.00 0.00 25 1010.4
20260504010507 21 287 0.0 11.3 0.00 0.00 0.00 25 1010.5
20260504010023 21 294 3.2 11.3 0.00 0.00 0.00 23 1010.6
20260504005510 21 288 0.0 6.4 0.00 0.00 0.00 25 1010.6